Regional Weather Roundup
Issued by NWS

Home | Current Version | Previous Version | Text Only | Print | Product List | Glossary Off
Versions: 1 2 3 4 5 6 7 8 9 10 11 12 13 14 15 16 17 18 19 20 21 22 23 24 25 26 27

000
ASUS45 KCYS 260210
RWRWY

WYOMING REGIONAL WEATHER ROUNDUP
NATIONAL WEATHER SERVICE CHEYENNE WY
800 PM MDT SUN SEP 25 2016

NOTE:  "FAIR" INDICATES FEW OR NO CLOUDS BELOW 12,000 FEET
WITH NO SIGNIFICANT WEATHER AND/OR OBSTRUCTIONS TO VISIBILITY.

WYZ001-260300-
YELLOWSTONE NATIONAL PARK

CITY           SKY/WX    TMP DP  RH WIND       PRES   REMARKS
LK YELLOWSTONE   N/A     42  37  82 CALM      30.56R
W YELLOWSTONE  NOT AVBL

$$
WYZ002>013-054>058-071-098>099-260300-
NORTHERN WYOMING

CITY           SKY/WX    TMP DP  RH WIND       PRES   REMARKS
JACKSON        CLEAR     48  37  66 N8        30.49R
CODY           FAIR      52  43  71 CALM      30.40R
GREYBULL       FAIR      57  44  62 CALM      30.35R
WORLAND        FAIR      51  43  74 E5        30.35R
SHERIDAN       FAIR      51  42  71 W6        30.33F
BUFFALO        FAIR      49  41  74 W6        30.38R
GILLETTE       FAIR      45  40  82 SW5       30.34F
HULETT         FAIR      48  36  61 S5        30.35R
NEWCASTLE      FAIR      50  32  50 N7        30.36R

$$
WYZ014>020-022>026-101>103-260300-
CENTRAL WYOMING

CITY           SKY/WX    TMP DP  RH WIND       PRES   REMARKS
BIG PINEY      FAIR      48  35  60 W6        30.49R
PINEDALE       FAIR      52  34  50 NW14      30.49R
DUBOIS         FAIR      50  32  50 NW16G23   30.47R
LANDER         FAIR      56  41  57 W3        30.38R
RIVERTON       FAIR      52  42  69 NE8       30.40R
CASPER         FAIR      47  37  68 SW6       30.39S
DOUGLAS        FAIR      52  37  56 NW5       30.39R

$$
WYZ021-027>030-104>119-260300-
SOUTHERN WYOMING

CITY           SKY/WX    TMP DP  RH WIND       PRES   REMARKS
EVANSTON       FAIR      53  35  50 N5        30.52R
FORT BRIDGER   CLEAR     52  36  54 W8        30.54R
ROCK SPRINGS   FAIR      50  36  58 S8        30.47S
DIXON          FAIR      48  40  74 CALM      30.52R
RAWLINS        FAIR      49  33  54 W6        30.48R
SARATOGA       FAIR      46  34  61 SW7       30.51R
LARAMIE        FAIR      46  33  60 NW7       30.48R
CHEYENNE       FAIR      54  31  41 NW5       30.43R
TORRINGTON     FAIR      51  36  56 NE8       30.35R
PINE BLUFFS    FAIR      48  34  57 CALM      30.41R

$$




USA.gov is the U.S. government's official web portal to all federal, state and local government web resources and services.